Location: Castillon
(43.0896°N, 0.2156°E)
Time: 03:19:27
(UTC+00:00)

Cosmos 1980 Rocket - Pass Details

Date: 22 October 2021
Orbit: 828 x 851 km, 71.0° (Epoch: 07 December)

Event Time Altitude Azimuth Distance (km) Brightness Sun altitude
Rises 17:23:01 0° 204° (SSW) 3,376 5.9 -4.0°
Reaches altitude 10° 17:25:26 10° 205° (SSW) 2,449 5.2 -4.4°
Maximum altitude 17:31:05 85° 293° (WNW) 853 2.3 -5.5°
Drops below altitude 10° 17:36:48 10° 24° (NNE) 2,480 4.3 -6.5°
Sets 17:39:16 0° 25° (NNE) 3,421 5.0 -6.9°
